Lapse_Rate
9.3 8.1 7.8 7.9 8.1 8.7 9.0 8.5 8.4 8.2 8.1 9.1 8.7 8.3 8.5 8.6 8.3 7.2 6.6 7.3 7.1 7.8 8.9 7.1 6.7 6.3 7.0 6.2 6.6 5.2 6.5 6.5 6.5 6.5 6.5 5.9 6.5 6.6 5.0 5.5 4.8 5.1 4.9 3.9 3.0
9.5 8.6 8.4 8.2 8.6 8.7 8.8 8.7 8.2 8.1 8.2 8.5 8.7 8.4 8.4 8.1 7.2 6.6 8.0 8.4 7.4 7.2 8.4 7.4 6.3 6.5 5.8 6.3 5.9 6.0 6.5 6.5 6.5 6.4 6.5 6.1 6.2 6.0 5.4 5.3 4.7 4.2 4.9 3.5 3.9
9.2 8.9 8.9 8.7 8.5 8.4 8.6 8.0 7.9 8.1 8.1 8.1 8.1 8.2 7.8 7.5 6.4 5.5 7.9 7.8 9.3 7.2 8.6 8.8 7.6 7.0 6.3 6.1 5.8 6.0 6.5 6.5 6.5 4.9 5.0 5.9 6.4 5.0 6.2 6.5 5.2 5.5 5.2 2.6 2.8
9.1 8.9 8.7 8.3 8.3 8.9 8.2 8.0 7.9 7.7 7.9 8.3 7.9 7.7 8.2 7.2 6.5 7.2 8.9 8.8 8.8 8.0 7.3 8.0 7.7 6.7 6.4 6.5 5.7 6.5 6.2 6.2 6.5 5.7 5.6 6.4 6.1 6.5 6.5 6.2 5.0 5.2 6.0 5.1 2.6
8.5 9.1 8.7 8.6 8.5 8.0 7.9 8.3 8.9 8.3 8.0 7.9 8.0 7.7 7.4 6.6 5.2 7.2 8.2 8.8 8.5 7.6 6.4 7.1 7.4 7.1 6.5 6.3 6.5 6.5 6.5 5.8 6.1 5.0 4.6 5.6 6.0 6.3 5.9 6.8 5.3 5.3 6.1 4.2 2.3
8.7 8.7 9.0 8.9 8.6 8.0 7.9 8.4 9.1 8.0 7.7 7.0 8.1 7.9 7.1 6.5 7.2 7.8 7.1 7.6 8.2 7.0 6.4 7.5 7.4 7.2 6.3 6.3 6.5 6.5 6.6 6.2 5.9 6.2 6.2 6.1 6.3 6.3 6.4 4.7 5.3 4.4 5.4 3.2 2.0
8.9 8.8 8.9 8.3 8.8 7.8 8.2 9.1 8.6 7.5 7.3 7.4 7.8 8.0 6.6 5.8 8.0 7.5 7.7 7.5 7.0 6.5 5.3 7.6 7.1 7.2 6.1 6.5 6.2 6.2 6.5 6.5 6.4 5.7 6.4 6.0 6.5 6.5 6.1 5.3 5.0 6.3 5.4 3.5 2.5
8.5 8.9 8.7 7.8 7.6 7.8 8.3 7.8 7.6 7.3 7.6 7.3 8.5 7.4 5.5 7.5 7.6 7.8 6.5 6.3 7.1 7.1 6.6 6.3 6.9 7.2 7.1 6.3 6.1 6.5 6.5 6.5 6.5 6.3 6.0 5.9 6.5 6.6 6.0 5.5 6.1 5.8 5.4 4.7 2.7
8.7 8.7 8.2 7.6 7.6 7.7 7.9 7.6 7.7 7.8 8.2 8.1 6.8 6.6 5.7 7.8 7.1 7.3 6.7 6.2 6.3 6.2 7.0 7.6 7.5 7.0 6.6 6.5 6.5 6.5 6.5 6.5 6.5 6.2 6.5 6.5 6.5 6.4 6.8 6.8 6.5 6.0 6.3 4.6 4.4
8.6 8.5 8.0 7.7 7.5 7.5 7.4 7.5 8.0 7.7 7.9 7.7 7.0 6.4 6.8 7.0 7.3 6.3 6.9 7.0 7.1 6.5 6.4 7.3 6.4 6.5 6.5 6.5 6.5 6.5 6.5 6.5 6.5 6.5 6.5 6.5 6.5 6.5 6.6 6.6 6.6 6.3 5.4 3.7 3.7
8.4 8.0 7.7 8.1 7.4 7.2 5.2 4.8 5.5 5.9 5.9 6.5 6.5 6.5 7.2 7.2 8.1 6.5 6.5 6.9 7.1 6.9 6.5 6.7 6.5 6.5 6.5 6.5 6.5 6.5 6.5 6.5 6.5 6.5 6.5 6.5 6.5 6.5 6.2 5.9 5.9 5.4 5.4 4.6 3.0
7.2 7.7 6.7 8.1 7.3 6.5 4.3 4.7 5.6 5.7 6.1 6.6 6.4 6.8 6.9 7.6 6.9 7.0 7.1 6.7 6.7 6.5 6.5 6.5 6.5 6.5 6.5 6.5 6.5 6.5 6.5 6.5 6.5 6.5 6.5 6.5 6.5 6.5 6.4 6.1 5.2 5.2 5.7 4.1 2.2
5.4 6.3 5.2 6.8 6.9 4.7 4.6 5.2 5.2 5.4 5.8 6.8 7.1 6.9 6.7 7.1 6.8 6.8 7.0 6.4 6.5 6.5 6.5 6.5 6.5 6.5 6.5 6.5 6.5 6.5 6.5 6.5 6.5 6.5 6.5 6.5 6.5 6.5 6.5 5.7 5.4 4.7 4.3 3.3 2.7
4.6 5.2 5.8 6.0 5.9 4.6 5.5 6.3 5.4 5.3 6.5 6.5 6.7 6.5 7.1 7.4 6.6 6.7 6.6 6.5 6.5 6.5 6.5 6.5 6.6 6.5 6.5 6.5 6.5 6.5 6.5 6.5 6.5 6.5 6.5 6.5 6.5 6.5 6.5 6.5 6.5 5.8 4.2 3.5 2.8
4.5 4.9 5.6 6.0 4.6 5.2 6.3 6.0 5.5 4.6 6.5 6.5 6.7 7.1 6.8 6.5 6.4 6.7 6.3 7.0 6.5 6.5 6.5 6.5 6.5 6.5 6.5 6.5 6.5 6.5 6.5 6.5 6.5 6.5 6.5 6.5 6.5 6.5 6.5 6.5 6.5 6.3 5.9 4.0 2.7
4.2 4.8 5.3 4.4 5.1 5.9 5.7 5.3 4.8 6.5 6.5 6.5 6.7 6.5 6.5 6.6 6.7 6.8 6.0 5.8 6.4 6.5 6.5 6.5 6.8 6.5 6.5 6.5 6.5 6.5 6.5 6.5 6.5 6.5 6.5 6.5 6.5 6.5 6.5 6.5 6.5 6.2 4.5 3.8 2.7
4.0 4.7 4.9 4.7 5.2 5.9 5.7 4.0 6.5 6.5 6.5 6.5 6.5 6.5 6.5 6.5 6.5 6.5 6.5 6.5 6.5 6.5 6.5 6.5 6.5 6.5 6.6 6.5 6.5 6.5 6.5 6.5 6.5 6.5 6.5 6.5 6.5 6.5 6.5 6.5 6.5 6.4 4.0 3.0 1.2
3.8 4.5 5.0 5.1 5.6 5.7 5.4 6.2 6.5 6.5 6.5 6.5 6.5 6.5 6.5 6.5 6.5 6.5 6.5 6.5 6.5 6.5 6.5 6.5 6.5 6.5 6.5 6.5 6.5 6.5 6.5 6.5 6.5 6.5 6.5 6.5 6.5 6.5 6.5 5.4 3.9 3.7 4.2 2.1 1.5
3.0 1.6 3.2 3.5 5.1 5.6 5.2 6.5 6.5 6.5 6.5 6.5 6.5 6.5 6.5 6.5 6.5 6.5 6.5 6.5 6.5 6.5 6.5 6.5 6.5 6.5 6.5 6.5 6.5 6.5 6.5 6.5 6.5 6.5 6.5 6.5 6.5 6.5 6.5 6.5 6.1 5.1 4.0 3.4 2.7
0.9 2.0 3.5 3.6 4.3 4.4 6.0 6.5 6.5 6.5 6.5 6.5 6.5 6.5 6.5 6.5 6.5 6.5 6.5 6.5 6.5 6.5 6.5 6.5 6.5 6.5 6.5 6.6 6.4 6.5 6.5 6.5 6.5 6.5 6.5 6.5 6.5 6.5 6.5 6.5 6.5 6.5 5.1 3.6 3.0
1.3 3.8 3.5 3.4 2.8 3.7 6.5 6.5 6.5 5.6 6.0 6.5 6.5 6.5 6.5 6.5 6.5 6.5 6.5 6.5 6.5 6.5 6.5 6.5 6.5 6.5 6.5 6.5 6.5 6.5 6.5 6.5 6.5 6.5 6.5 6.5 6.5 6.5 6.5 6.5 6.5 6.4 4.6 3.4 3.2
0.8 6.3 2.7 2.6 4.2 6.3 6.5 6.5 6.2 6.4 6.0 6.5 6.5 6.5 6.5 6.5 6.5 6.5 6.5 6.5 6.4 6.4 6.5 6.5 6.5 6.5 6.5 6.5 6.5 6.5 6.5 6.5 6.5 6.5 6.5 6.5 6.5 6.5 6.5 6.5 5.7 5.5 4.2 2.9 2.7
1.8 2.0 1.9 2.5 6.5 6.5 6.4 6.5 6.3 6.5 6.5 6.5 6.5 6.5 6.5 6.5 6.5 6.5 6.5 6.4 6.1 6.5 6.5 6.5 6.5 6.5 6.5 6.5 6.5 6.5 6.5 6.5 6.5 6.5 6.5 6.5 6.5 6.5 6.5 6.5 5.2 4.9 3.9 3.4 2.9
1.6 6.5 1.9 2.0 3.8 6.5 6.5 6.5 6.5 5.9 6.5 6.3 6.5 6.5 6.5 6.5 6.5 6.5 6.5 6.5 6.3 6.5 6.5 6.2 6.5 6.5 6.5 6.5 6.5 6.5 6.5 6.5 6.5 6.5 6.5 6.5 6.5 6.5 6.5 6.5 6.2 5.7 4.6 3.2 3.4
0.6 6.5 6.8 6.5 6.1 6.5 6.4 6.5 6.5 6.5 6.2 6.3 6.5 6.5 6.5 6.5 6.5 6.5 6.5 6.5 6.5 6.5 6.5 6.5 6.5 6.5 6.5 6.5 6.5 6.5 6.5 6.5 6.5 6.5 6.5 6.5 6.5 6.5 6.5 6.5 5.8 4.9 4.3 4.0 3.4
2.3 3.1 4.1 5.4 5.7 6.5 6.5 6.5 6.5 6.5 6.5 6.5 6.5 6.5 6.5 6.5 6.5 6.5 6.5 6.5 6.5 6.5 6.5 6.5 6.5 6.5 6.5 6.5 6.5 6.5 6.5 6.5 6.5 6.5 6.5 6.5 6.5 6.5 5.8 4.8 5.1 3.6 3.6 4.3 4.1
1.2 3.5 6.6 5.8 6.3 6.5 6.5 6.5 6.5 6.5 6.7 6.3 6.5 6.5 6.5 6.5 5.9 5.9 5.8 5.5 6.1 6.5 6.5 6.5 6.5 6.5 6.5 6.5 6.5 6.5 6.5 6.5 6.5 6.5 6.5 6.5 6.5 6.5 6.5 6.5 5.3 3.9 3.7 3.8 3.1
Wind_Speed
19 21 19 14 15 16 16 16 15 15 14 12 12 11 10 11 10 5 6 6 7 9 10 5 4 2 1 3 4 4 2 9 9 7 4 8 14 10 2 3 5 3 5 7 14
19 22 19 18 19 19 18 18 17 17 15 14 12 10 9 7 3 8 8 14 15 12 10 4 4 1 2 4 5 5 6 7 7 5 5 4 8 7 5 8 7 7 7 4 14
20 20 21 20 19 20 20 20 20 17 15 13 12 7 5 2 3 6 15 26 19 16 11 8 7 3 3 4 5 6 7 2 2 6 5 6 3 5 6 6 5 6 10 6 9
20 20 20 19 21 23 23 24 20 21 18 11 8 5 1 2 4 3 11 11 12 16 8 10 6 4 5 7 5 2 2 2 2 5 5 6 6 5 12 12 9 10 9 6 9
19 21 20 20 23 23 23 21 20 19 19 6 8 5 4 2 7 5 12 11 9 7 14 13 11 6 6 6 2 9 2 7 3 7 8 8 6 4 8 5 15 11 11 11 9
20 20 20 21 22 23 19 20 19 17 11 4 8 8 3 3 4 5 3 5 6 7 7 14 7 11 3 4 7 8 12 4 5 4 4 7 5 6 3 2 18 14 12 8 8
19 20 21 22 22 20 18 22 19 11 6 6 10 3 3 7 2 9 7 5 5 8 7 9 10 8 5 2 4 1 14 2 3 6 6 4 3 7 6 12 17 19 9 8 6
20 21 21 22 21 18 17 18 14 4 13 9 6 2 4 3 5 1 8 5 6 8 4 13 4 2 6 2 4 7 1 10 5 7 5 10 17 9 13 17 16 22 13 5 6
19 19 21 21 19 17 17 10 11 9 7 8 3 2 5 4 2 3 8 6 5 4 5 13 5 5 7 5 5 4 4 5 3 8 4 6 4 17 17 17 15 16 18 3 5
19 19 21 19 17 15 12 4 8 7 4 2 3 2 3 4 3 3 3 9 4 6 6 4 4 7 6 8 15 12 6 3 4 5 3 5 3 9 18 19 17 14 12 6 6
19 19 20 18 15 13 4 3 4 4 4 1 0 1 3 7 3 4 2 3 3 4 2 4 6 8 10 8 5 11 8 5 4 2 4 4 2 6 4 9 11 10 12 12 9
18 19 19 14 11 8 4 4 3 2 1 2 3 3 4 3 2 2 4 1 2 2 2 5 13 9 13 9 6 14 10 4 2 2 4 4 7 7 7 6 9 10 15 15 6
20 18 17 10 2 5 3 3 3 1 2 2 1 1 3 2 1 2 2 2 2 2 3 7 3 8 10 11 7 2 16 6 4 3 2 3 5 7 11 7 5 7 8 8 10
20 17 13 7 4 1 2 2 2 1 4 4 2 2 2 1 2 3 3 2 2 2 1 2 3 8 6 8 4 4 8 7 3 4 4 6 4 6 11 14 7 13 10 9 7
21 16 9 1 5 2 2 4 3 3 4 1 4 4 3 2 2 2 2 1 2 0 1 1 6 7 2 8 5 3 6 7 4 4 2 0 1 6 4 9 20 18 11 8 9
21 11 1 2 2 4 5 4 3 5 3 2 1 3 1 2 3 4 3 6 2 2 3 1 6 3 5 3 6 6 10 8 5 3 2 6 6 5 6 9 4 11 12 10 9
22 8 3 5 2 9 5 3 4 5 2 4 1 2 2 2 2 3 2 1 1 3 2 2 4 4 0 3 4 6 4 3 3 4 4 3 6 12 5 6 5 7 9 9 10
18 4 4 3 7 9 2 4 9 4 5 1 2 3 5 6 3 5 5 2 6 4 2 3 2 4 2 4 7 5 7 4 6 4 3 2 6 6 7 8 7 8 8 8 9
8 2 1 2 8 2 2 6 2 3 3 2 3 3 4 5 3 4 6 3 7 13 3 4 3 1 5 3 2 4 4 5 5 3 3 4 7 8 4 7 4 5 7 10 9
2 2 2 7 8 2 3 3 4 4 3 3 2 2 2 4 7 7 8 4 5 10 6 3 4 1 6 1 6 3 9 3 2 2 3 4 5 6 5 9 4 7 9 8 7
3 2 2 5 3 2 3 5 5 7 6 5 3 3 3 1 5 4 3 4 7 5 10 2 2 2 5 3 6 3 2 2 3 3 4 1 5 6 6 8 9 7 7 8 8
2 2 0 3 3 2 1 3 5 4 3 5 3 4 3 3 0 3 3 3 3 11 7 6 4 3 2 4 6 1 5 5 4 4 2 3 6 2 7 7 8 6 8 7 8
2 3 0 3 1 3 5 5 5 6 6 5 4 5 2 2 2 2 2 5 6 4 7 6 2 4 2 2 1 4 4 3 4 3 5 5 5 2 3 5 7 10 8 8 7
3 3 4 4 1 3 5 6 6 5 3 5 4 2 3 2 2 1 3 3 4 2 2 5 3 4 6 3 6 5 7 12 8 4 3 5 7 7 3 5 7 8 8 8 9
4 2 2 4 3 6 4 5 7 6 4 3 3 3 2 2 2 2 1 1 3 1 2 3 4 4 3 4 4 4 8 15 14 13 8 4 6 8 7 8 8 8 7 7 7
2 3 3 3 4 4 4 4 6 7 3 6 3 5 0 3 3 1 1 2 1 1 2 1 2 2 3 1 2 2 6 12 17 12 9 6 7 6 5 6 6 8 9 9 8
1 2 0 3 4 3 1 3 7 10 9 7 5 4 5 4 4 3 3 3 4 1 2 2 4 3 2 1 1 5 10 11 8 6 12 10 11 3 3 7 9 8 10 11 9
Wind_Direction
338 340 341 336 327 322 317 309 304 300 296 294 294 290 292 300 301 260 220 222 245 283 296 342 341 348 172 237 164 130 132 212 202 168 169 156 206 209 204 11 329 327 247 281 133
337 340 343 339 334 328 317 313 304 297 294 291 285 289 294 309 309 263 243 239 235 268 285 274 303 319 184 206 199 177 214 216 186 164 165 144 233 167 44 3 307 330 338 110 135
344 333 329 338 332 325 320 314 309 293 275 278 281 286 297 15 343 252 246 228 228 229 273 269 263 220 197 202 217 199 220 67 255 122 141 142 58 119 253 308 247 292 2 285 155
342 334 341 336 331 325 325 322 319 308 286 273 264 271 287 108 253 197 40 32 234 201 263 245 238 216 194 210 196 229 200 184 258 127 103 118 124 104 205 236 297 296 286 256 249
341 340 341 334 332 334 333 330 327 318 315 297 274 183 124 137 250 288 303 7 46 11 227 208 212 222 181 182 211 220 158 213 318 145 152 135 135 145 227 276 306 311 292 257 240
342 341 338 331 332 333 334 334 329 325 324 138 285 154 123 233 260 354 149 105 25 33 272 190 206 219 204 190 178 200 232 141 219 201 155 135 178 144 180 72 284 296 306 254 205
342 344 339 335 332 335 336 335 333 329 126 137 238 142 147 247 195 0 97 103 85 56 345 210 223 202 174 142 181 98 189 208 246 184 202 122 258 187 174 156 251 272 295 286 237
342 343 336 338 336 342 342 346 350 23 142 185 171 95 242 234 262 283 113 82 60 80 320 299 135 215 238 165 88 194 129 199 210 168 232 154 232 189 148 159 225 274 273 294 285
341 341 333 339 343 344 349 7 53 92 106 113 59 112 289 329 137 212 130 130 111 68 315 301 191 197 208 165 103 160 181 174 180 184 156 161 223 199 158 173 207 239 256 213 288
339 339 332 338 342 343 352 23 43 62 65 74 82 9 328 356 59 54 82 143 107 94 350 201 184 198 207 184 187 176 138 146 180 188 151 189 251 174 177 190 215 220 258 264 224
337 338 328 334 342 351 34 10 27 12 37 75 349 260 3 322 138 35 118 110 115 77 353 189 178 213 202 191 151 139 158 132 204 172 128 201 271 260 169 184 214 215 252 251 237
337 337 327 334 344 22 68 75 65 150 18 261 240 261 245 273 30 71 138 193 65 59 334 193 207 198 169 213 144 155 141 163 243 175 138 183 235 237 267 216 202 203 214 241 226
336 341 328 348 48 42 76 87 20 23 94 316 334 11 306 359 189 350 186 102 92 94 263 204 35 174 224 191 141 117 171 157 157 141 80 99 265 224 242 227 226 216 230 228 222
337 343 334 359 93 177 63 120 67 255 75 4 358 3 331 302 78 4 20 127 69 158 178 294 50 171 292 157 146 132 165 163 105 87 195 159 270 255 236 240 223 241 216 222 218
335 341 339 77 148 102 158 137 112 64 43 324 304 300 302 118 228 23 9 28 137 352 135 21 171 157 205 183 154 156 134 117 106 99 124 243 144 253 221 236 236 231 244 213 206
332 336 78 49 92 155 131 119 74 47 329 326 319 356 133 33 6 331 57 38 264 198 191 301 272 170 155 44 205 151 95 60 61 76 260 209 177 246 216 228 241 227 217 201 187
325 321 203 164 201 163 130 61 45 55 138 317 274 164 250 204 232 198 165 128 212 83 247 353 154 99 247 99 162 121 110 111 137 202 218 207 191 247 246 258 225 237 230 195 169
323 319 202 195 152 144 106 57 60 227 279 173 277 236 197 160 210 206 159 232 240 234 123 196 124 139 8 193 179 137 157 148 170 182 214 110 226 246 226 271 239 241 243 157 160
340 8 321 199 158 158 99 54 212 228 223 291 277 230 194 182 211 169 188 218 203 196 205 154 74 118 273 125 157 162 138 141 107 42 70 224 285 293 253 265 262 200 153 152 154
71 19 295 157 157 63 69 169 228 217 167 188 316 245 336 192 179 188 187 193 211 185 190 237 110 66 132 232 42 113 147 88 87 132 252 277 279 241 271 249 211 185 170 147 133
54 22 269 134 81 44 132 226 221 226 191 172 240 279 266 266 190 190 185 165 170 195 182 210 92 113 122 186 160 120 154 97 111 161 186 269 259 215 244 245 209 179 155 144 146
72 14 251 126 18 349 235 217 214 235 163 248 223 233 250 304 213 137 190 209 211 156 172 200 125 118 120 335 177 229 160 149 129 193 189 160 272 321 269 234 157 167 156 155 154
61 261 326 109 115 297 292 278 239 211 182 174 249 196 276 304 300 147 142 238 288 155 168 186 136 118 63 16 1 208 203 186 104 79 208 153 258 334 318 171 162 158 165 159 152
54 351 328 23 40 4 326 287 298 267 238 167 224 26 7 311 30 238 136 174 292 210 144 99 122 159 189 200 135 186 191 198 195 207 194 224 290 310 281 185 167 170 164 158 167
28 40 49 310 351 337 327 300 316 314 308 271 138 112 132 289 329 2 358 102 167 206 98 134 165 158 221 153 133 183 182 189 204 215 197 225 221 256 223 206 188 162 150 153 171
70 30 344 274 297 323 337 316 315 328 319 302 335 333 174 191 202 214 316 4 225 5 107 9 150 109 343 52 146 245 208 200 216 221 249 261 276 241 201 129 157 179 167 180 191
317 306 185 316 331 353 270 322 283 320 289 257 303 327 305 248 184 223 198 264 246 239 134 89 130 103 255 183 140 288 218 199 206 200 207 210 233 309 206 183 193 186 185 193 197